Date,TemperatureHighF,TemperatureAvgF,TemperatureLowF,DewpointHighF,DewpointAvgF,DewpointLowF,HumidityHigh,HumidityAvg,HumidityLow,PressureMaxIn,PressureMinIn,WindSpeedMaxMPH,WindSpeedAvgMPH,GustSpeedMaxMPH,PrecipitationSumIn
2013-2-1,45.8,40.3,33.6,42.6,38.7,33.1,99,94,84,29.85,29.46,4,0,4,0.23
2013-2-2,41.3,36.6,26.7,36.3,31.3,25.2,99,82,63,30.25,29.60,13,2,13,0.01
2013-2-3,48.3,40.0,27.0,46.4,37.6,25.4,96,91,85,30.25,29.91,5,0,5,0.00
2013-2-4,50.1,47.4,41.7,46.3,40.6,35.2,93,78,58,29.95,29.73,16,1,16,0.00
2013-2-5,43.0,39.6,34.1,38.7,33.5,28.0,89,79,59,29.73,29.34,11,1,11,0.08
2013-2-6,42.9,39.9,35.2,38.4,33.4,28.0,87,78,68,30.07,29.38,18,3,18,0.02
2013-2-7,41.6,36.2,30.2,35.6,31.2,27.3,94,82,67,30.11,29.99,6,0,6,0.01
2013-2-8,41.8,36.5,29.5,36.1,32.8,28.8,97,87,70,30.15,30.02,8,1,8,0.00
2013-2-9,38.2,36.7,34.1,36.4,34.7,32.8,97,92,83,30.15,29.86,2,0,5,0.02
2013-2-10,40.7,37.8,33.8,40.2,37.0,32.8,98,97,96,29.86,29.26,7,0,7,0.39
2013-2-11,35.0,34.0,33.0,34.0,32.9,32.2,97,96,94,29.77,29.28,8,0,8,0.22
2013-2-12,36.1,34.6,33.2,32.8,30.2,28.0,94,84,77,30.14,29.77,5,0,5,0.00
2013-2-13,39.3,35.0,33.2,38.2,30.9,27.6,96,85,75,30.20,29.97,5,0,5,0.01
2013-2-14,47.9,43.4,36.2,47.4,41.8,35.1,99,94,88,29.98,29.77,5,0,5,0.06
2013-2-15,49.4,40.0,35.5,40.5,36.2,33.5,99,87,59,30.21,29.98,8,0,8,0.00
2013-2-16,50.6,41.3,32.1,42.1,37.2,31.1,97,86,59,30.25,30.19,2,0,2,0.00
2013-2-17,48.8,38.1,32.2,41.1,34.8,31.2,99,89,57,30.21,30.09,8,0,8,0.00
2013-2-18,46.8,37.4,28.3,38.1,34.1,27.1,99,89,67,30.14,30.09,7,0,7,0.01
2013-2-19,48.9,33.1,23.7,39.0,30.2,22.7,99,90,63,30.14,30.04,3,0,3,0.00
2013-2-20,41.1,36.8,33.1,38.1,32.3,27.8,98,84,68,30.26,30.16,14,1,14,0.02
2013-2-21,36.4,34.7,33.1,29.8,25.2,22.0,80,68,59,30.25,30.16,11,2,11,0.00
2013-2-22,35.4,33.6,32.7,26.6,24.3,22.0,76,69,63,30.16,30.09,12,2,12,0.00
2013-2-23,35.7,33.6,32.2,29.0,26.2,23.3,85,74,63,30.21,30.09,9,1,9,0.00
2013-2-24,36.1,34.3,32.5,29.2,28.2,26.7,85,78,72,30.28,30.21,13,2,13,0.00
2013-2-25,39.3,37.6,34.6,35.9,33.4,28.5,90,85,78,30.38,30.27,13,2,13,0.00
2013-2-26,40.5,39.0,37.6,38.5,37.1,34.7,96,93,88,30.56,30.37,7,1,7,0.02
2013-2-27,42.5,38.4,35.7,37.1,34.6,32.6,94,86,73,30.56,30.47,9,1,9,0.00
2013-2-28,46.0,39.3,35.4,38.4,34.8,32.3,90,84,72,30.48,30.33,9,1,9,0.00